Weather in Phủ Lý

Vietnam     20°32′28″N   105°55′01″E
temp.,
°C
wind,
m/s
gust,
m/s
humid.,
%
clouds,
%
prec.,
mm/h
press.,
hPa
HPBL,
m
24 july, sat
sat2401:00+25nw249753 7.1 998113
04:00+25n259897 0.5 998149
07:00+26nnw369249 1.1 999261
10:00+31ne477119 3.7 9991164
13:00+32ne457190 9.0 9981092
16:00+31e4573100 2.2 997843
19:00+27ese248817 7.4 99871
22:00+26ssw01923 3.2 100013
25 july, sun
sun2501:00+26nnw119256 3.5 99917
04:00+26n249442 0.0 99990
07:00+27n23893 0.0 1000212
10:00+32n346822 1.2 1000856
13:00+35nne345322 1.2 9991805
16:00+34ne125666 0.0 9971121
19:00+29sse368129 0.4 999144
22:00+27s268779 0.1 1001174
26 july, mon
mon2601:00+27ssw228731 1.6 99939
04:00+27nnw118896 0.2 99825
07:00+28nw24835 0.2 1000213
10:00+33nw12634 0.0 1000842
13:00+36wsw125127 0.0 9981856
16:00+36ssw324941 0.0 9951675
19:00+30s48774 0.0 997260
22:00+29s26815 0.0 998154
27 july, tue
tue2701:00+29ssw118099 0.0 99718
04:00+28wnw128399 0.0 99625
07:00+29nw237743 0.0 998216
10:00+34wnw235785 0.0 9981003
13:00+36w334680 0.0 9951984
16:00+37nne124380 0.0 9931623
19:00+31sse387299 0.0 995273
22:00+30ssw257850 0.0 997151
28 july, wed
wed2801:00+29ssw2376100 0.0 99554
04:00+29w1177100 0.0 99514
07:00+29nw3781100 0.0 997307
10:00+33nw4559100 0.0 998841
13:00+37nw234755 0.0 9961806
16:00+37wnw124497 0.0 9941961
19:00+31s3871100 0.0 996274
22:00+28ese3686100 0.6 998177